AFR81 LFPG-TFFF

Flight info

Callsign AFR81
Flight time N/A
Altitude 34000
Route LGL UN491 OTOFE DCT ALUTA DCT TAKAS/M083F340 DCT OMOKO DCT 48N015W 47N020W 43N030W 4000N03430W/M083F360 36N040W 32N045W 27N050W 22N055W DCT DRDGE/N0478F360 DCT UMAMU UMAMU2D
Aircraft B77W/H-SDE1E2E3FGHIJ2J3J4J5M1RWXY/LB1D1

Departure

Time N/A
Airport Charles de Gaulle International Airport (LFPG)

Arrival

Time 2026-05-03 21:53
Airport Martinique Aimé Césaire International Airport (TFFF)
Time Latitude Longitude Altitude Speed Heading
2026-05-03 20:15 24.17858 -52.89001 36119 ft 504 kts 226°
2026-05-03 20:15 24.12639 -52.94171 36118 ft 503 kts 226°
2026-05-03 20:16 24.07455 -52.99300 36119 ft 503 kts 226°
2026-05-03 20:16 24.02247 -53.04448 36120 ft 504 kts 226°
2026-05-03 20:17 23.97035 -53.09592 36117 ft 504 kts 226°
2026-05-03 20:17 23.91799 -53.14754 36121 ft 503 kts 226°
2026-05-03 20:18 23.86610 -53.19864 36110 ft 503 kts 226°
2026-05-03 20:18 23.81388 -53.25001 36108 ft 504 kts 226°
2026-05-03 20:19 23.76173 -53.30127 36111 ft 504 kts 226°
2026-05-03 20:19 23.70924 -53.35279 36111 ft 504 kts 226°
2026-05-03 20:20 23.65707 -53.40393 36110 ft 503 kts 226°
2026-05-03 20:20 23.60507 -53.45486 36107 ft 504 kts 226°
2026-05-03 20:21 23.55287 -53.50592 36109 ft 504 kts 226°
2026-05-03 20:21 23.50069 -53.55691 36110 ft 504 kts 226°
2026-05-03 20:22 23.44850 -53.60785 36108 ft 503 kts 226°
2026-05-03 20:22 23.39605 -53.65899 36113 ft 503 kts 226°
2026-05-03 20:23 23.34366 -53.71002 36114 ft 504 kts 226°
2026-05-03 20:23 23.29146 -53.76080 36116 ft 504 kts 226°
2026-05-03 20:24 23.23905 -53.81173 36116 ft 504 kts 226°
2026-05-03 20:24 23.18672 -53.86253 36120 ft 504 kts 225°
2026-05-03 20:25 23.13430 -53.91335 36119 ft 504 kts 226°
2026-05-03 20:25 23.08189 -53.96411 36118 ft 504 kts 225°
2026-05-03 20:26 23.02969 -54.01462 36119 ft 504 kts 226°
2026-05-03 20:26 22.97710 -54.06544 36117 ft 503 kts 226°
2026-05-03 20:27 22.92509 -54.11566 36117 ft 503 kts 225°
2026-05-03 20:27 22.87252 -54.16636 36109 ft 503 kts 225°
2026-05-03 20:28 22.82021 -54.21676 36107 ft 504 kts 225°
2026-05-03 20:28 22.76750 -54.26748 36107 ft 505 kts 225°
2026-05-03 20:29 22.71492 -54.31803 36105 ft 505 kts 225°
2026-05-03 20:29 22.66224 -54.36861 36104 ft 505 kts 225°
2026-05-03 20:30 22.60981 -54.41891 36103 ft 506 kts 225°
2026-05-03 20:30 22.55725 -54.46927 36104 ft 506 kts 225°
2026-05-03 20:31 22.50449 -54.51977 36103 ft 505 kts 225°
2026-05-03 20:31 22.45144 -54.57050 36103 ft 507 kts 225°
2026-05-03 20:32 22.39892 -54.62066 36102 ft 507 kts 225°
2026-05-03 20:32 22.34603 -54.67113 36102 ft 507 kts 225°
2026-05-03 20:33 22.29302 -54.72166 36103 ft 507 kts 225°
2026-05-03 20:33 22.24001 -54.77214 36103 ft 507 kts 225°
2026-05-03 20:34 22.18712 -54.82244 36103 ft 507 kts 225°
2026-05-03 20:34 22.13389 -54.87301 36106 ft 507 kts 225°
2026-05-03 20:35 22.08095 -54.92326 36101 ft 508 kts 225°
2026-05-03 20:35 22.02739 -54.97404 36101 ft 508 kts 225°
2026-05-03 20:36 21.97186 -55.02161 36102 ft 511 kts 219°
2026-05-03 20:36 21.91419 -55.06638 36100 ft 510 kts 219°
2026-05-03 20:37 21.85654 -55.11100 36092 ft 510 kts 219°
2026-05-03 20:37 21.79839 -55.15595 36093 ft 511 kts 219°
2026-05-03 20:38 21.74070 -55.20049 36093 ft 511 kts 219°
2026-05-03 20:38 21.68297 -55.24501 36093 ft 510 kts 219°
2026-05-03 20:39 21.62523 -55.28949 36094 ft 511 kts 219°
2026-05-03 20:39 21.56767 -55.33379 36094 ft 511 kts 219°
2026-05-03 20:40 21.50945 -55.37854 36094 ft 511 kts 219°
2026-05-03 20:40 21.45175 -55.42286 36095 ft 511 kts 219°
2026-05-03 20:41 21.39385 -55.46728 36095 ft 511 kts 218°
2026-05-03 20:41 21.33605 -55.51158 36094 ft 511 kts 218°
2026-05-03 20:42 21.27799 -55.55604 36094 ft 511 kts 218°
2026-05-03 20:42 21.22021 -55.60023 36096 ft 512 kts 218°
2026-05-03 20:43 21.16211 -55.64464 36097 ft 511 kts 218°
2026-05-03 20:43 21.10432 -55.68876 36099 ft 511 kts 218°
2026-05-03 20:44 21.04638 -55.73295 36099 ft 512 kts 218°
2026-05-03 20:44 20.98823 -55.77726 36098 ft 512 kts 218°
2026-05-03 20:45 20.92977 -55.82176 36100 ft 512 kts 218°
2026-05-03 20:45 20.87185 -55.86581 36091 ft 511 kts 218°
2026-05-03 20:46 20.81458 -55.90932 36091 ft 511 kts 218°
2026-05-03 20:46 20.75636 -55.95351 36091 ft 512 kts 218°
2026-05-03 20:47 20.69843 -55.99744 36095 ft 513 kts 218°
2026-05-03 20:47 20.63996 -56.04173 36094 ft 513 kts 218°
2026-05-03 20:48 20.58188 -56.08569 36093 ft 512 kts 218°
2026-05-03 20:48 20.52353 -56.12981 36092 ft 511 kts 218°
2026-05-03 20:49 20.46509 -56.17395 36091 ft 513 kts 218°
2026-05-03 20:49 20.40681 -56.21794 36091 ft 514 kts 218°
2026-05-03 20:50 20.34873 -56.26173 36091 ft 513 kts 218°
2026-05-03 20:50 20.29040 -56.30566 36093 ft 513 kts 218°
2026-05-03 20:51 20.23182 -56.34975 36091 ft 514 kts 217°
2026-05-03 20:51 20.17363 -56.39349 36091 ft 513 kts 217°
2026-05-03 20:52 20.11490 -56.43761 36090 ft 514 kts 217°
2026-05-03 20:52 20.05648 -56.48145 36092 ft 514 kts 217°
2026-05-03 20:53 19.99782 -56.52543 36092 ft 513 kts 217°
2026-05-03 20:53 19.93908 -56.56943 36089 ft 513 kts 217°
2026-05-03 20:54 19.88076 -56.61308 36076 ft 513 kts 217°
2026-05-03 20:54 19.79324 -56.67849 36077 ft 514 kts 217°
2026-05-03 20:55 19.73478 -56.72214 36073 ft 514 kts 217°
2026-05-03 20:55 19.67604 -56.76596 36077 ft 514 kts 217°
2026-05-03 20:56 19.61752 -56.80958 36075 ft 513 kts 217°
2026-05-03 20:56 19.55842 -56.85358 36074 ft 513 kts 217°
2026-05-03 20:57 19.49993 -56.89710 36077 ft 514 kts 217°
2026-05-03 20:57 19.44135 -56.94063 36077 ft 514 kts 217°
2026-05-03 20:58 19.38255 -56.98429 36075 ft 514 kts 217°
2026-05-03 20:58 19.32402 -57.02772 36078 ft 514 kts 217°
2026-05-03 20:59 19.26534 -57.07121 36072 ft 514 kts 217°
2026-05-03 20:59 19.20679 -57.11457 36078 ft 514 kts 217°
2026-05-03 21:00 19.16751 -57.14365 36076 ft 515 kts 217°
2026-05-03 21:00 19.08925 -57.20150 36080 ft 513 kts 217°
2026-05-03 21:01 19.03089 -57.24461 36074 ft 514 kts 217°
2026-05-03 21:01 18.97178 -57.28824 36074 ft 514 kts 217°
2026-05-03 21:02 18.91329 -57.33136 36070 ft 513 kts 217°
2026-05-03 21:02 18.85482 -57.37443 36067 ft 512 kts 217°
2026-05-03 21:03 18.79619 -57.41759 36063 ft 512 kts 217°
2026-05-03 21:03 18.73785 -57.46049 36063 ft 512 kts 217°
2026-05-03 21:04 18.67909 -57.50367 36065 ft 511 kts 217°
2026-05-03 21:04 18.62063 -57.54659 36065 ft 512 kts 217°
2026-05-03 21:05 18.56202 -57.58958 36061 ft 511 kts 217°
2026-05-03 21:05 18.50325 -57.63265 36063 ft 511 kts 217°
2026-05-03 21:06 18.44472 -57.67551 36066 ft 511 kts 217°
2026-05-03 21:06 18.38656 -57.71807 36061 ft 512 kts 217°
2026-05-03 21:07 18.32766 -57.76112 36065 ft 512 kts 217°
2026-05-03 21:07 18.26896 -57.80400 36057 ft 512 kts 217°
2026-05-03 21:08 18.21061 -57.84658 36059 ft 512 kts 217°
2026-05-03 21:08 18.15183 -57.88945 36063 ft 512 kts 216°
2026-05-03 21:09 18.09330 -57.93209 36059 ft 511 kts 216°
2026-05-03 21:09 18.03459 -57.97483 36056 ft 511 kts 217°
2026-05-03 21:10 17.97940 -58.02153 36052 ft 507 kts 227°
2026-05-03 21:10 17.92999 -58.07445 36057 ft 508 kts 228°
2026-05-03 21:11 17.88061 -58.12745 36046 ft 508 kts 228°
2026-05-03 21:11 17.83135 -58.18017 36046 ft 509 kts 228°
2026-05-03 21:12 17.78142 -58.23352 36151 ft 515 kts 228°
2026-05-03 21:12 17.75651 -58.26010 36718 ft 513 kts 228°
2026-05-03 21:12 17.73150 -58.28677 37549 ft 506 kts 228°
2026-05-03 21:13 17.70684 -58.31305 38026 ft 506 kts 228°
2026-05-03 21:13 17.68201 -58.33950 38039 ft 507 kts 228°
2026-05-03 21:13 17.63278 -58.39191 38047 ft 504 kts 228°
2026-05-03 21:14 17.58359 -58.44425 38041 ft 503 kts 228°
2026-05-03 21:14 17.53411 -58.49683 38042 ft 505 kts 228°
2026-05-03 21:15 17.48467 -58.54933 38041 ft 506 kts 228°
2026-05-03 21:15 17.43546 -58.60154 38043 ft 506 kts 228°
2026-05-03 21:16 17.38584 -58.65414 38048 ft 506 kts 228°
2026-05-03 21:16 17.33633 -58.70658 38044 ft 506 kts 228°
2026-05-03 21:17 17.29501 -58.75031 38045 ft 506 kts 228°
2026-05-03 21:17 17.23726 -58.81139 38043 ft 506 kts 228°
2026-05-03 21:18 17.18779 -58.86366 38042 ft 506 kts 228°
2026-05-03 21:18 17.13800 -58.91623 38044 ft 507 kts 228°
2026-05-03 21:19 17.08823 -58.96874 38041 ft 508 kts 228°
2026-05-03 21:19 17.03851 -59.02114 38038 ft 507 kts 228°
2026-05-03 21:20 16.98876 -59.07354 38035 ft 507 kts 228°
2026-05-03 21:20 16.93928 -59.12560 38038 ft 506 kts 228°
2026-05-03 21:21 16.88935 -59.17811 38033 ft 506 kts 228°
2026-05-03 21:21 16.83965 -59.23033 38029 ft 506 kts 228°
2026-05-03 21:22 16.79028 -59.28217 38030 ft 506 kts 228°
2026-05-03 21:22 16.74048 -59.33441 38031 ft 506 kts 228°
2026-05-03 21:23 16.69071 -59.38658 38034 ft 506 kts 227°
2026-05-03 21:23 16.64102 -59.43863 38029 ft 506 kts 227°
2026-05-03 21:24 16.59123 -59.49073 38033 ft 505 kts 227°
2026-05-03 21:24 16.54156 -59.54268 38030 ft 506 kts 227°
2026-05-03 21:25 16.49164 -59.59485 38034 ft 506 kts 227°
2026-05-03 21:25 16.44179 -59.64690 38034 ft 506 kts 227°
2026-05-03 21:26 16.39194 -59.69891 38034 ft 505 kts 227°
2026-05-03 21:26 16.34247 -59.75048 38032 ft 506 kts 227°
2026-05-03 21:27 16.29284 -59.80219 38034 ft 506 kts 227°
2026-05-03 21:27 16.24300 -59.85407 38034 ft 506 kts 227°
2026-05-03 21:28 16.19299 -59.90609 38035 ft 506 kts 227°
2026-05-03 21:28 16.14384 -59.95716 38032 ft 494 kts 227°
2026-05-03 21:29 16.09601 -60.00683 37915 ft 485 kts 227°
2026-05-03 21:29 16.07197 -60.03179 37604 ft 485 kts 227°
2026-05-03 21:29 16.04808 -60.05659 37238 ft 487 kts 227°
2026-05-03 21:30 16.02388 -60.08170 36918 ft 488 kts 227°
2026-05-03 21:30 15.99976 -60.10671 36688 ft 488 kts 227°
2026-05-03 21:30 15.97536 -60.13200 36463 ft 488 kts 227°
2026-05-03 21:30 15.95141 -60.15682 35972 ft 485 kts 227°
2026-05-03 21:31 15.92744 -60.18165 35048 ft 489 kts 227°
2026-05-03 21:31 15.90354 -60.20640 34197 ft 491 kts 227°
2026-05-03 21:31 15.87919 -60.23160 33005 ft 499 kts 227°
2026-05-03 21:31 15.85463 -60.25702 31931 ft 506 kts 226°
2026-05-03 21:32 15.82950 -60.28301 31010 ft 509 kts 226°
2026-05-03 21:32 15.80448 -60.30888 30364 ft 505 kts 226°
2026-05-03 21:32 15.77979 -60.33439 29883 ft 498 kts 226°
2026-05-03 21:32 15.75550 -60.35947 29359 ft 493 kts 226°
2026-05-03 21:33 15.73121 -60.38456 28800 ft 489 kts 225°
2026-05-03 21:33 15.70732 -60.40921 28248 ft 485 kts 225°
2026-05-03 21:33 15.68331 -60.43398 27675 ft 481 kts 226°
2026-05-03 21:33 15.65982 -60.45821 27111 ft 478 kts 226°
2026-05-03 21:34 15.63656 -60.48219 26549 ft 474 kts 226°
2026-05-03 21:34 15.61300 -60.50648 25965 ft 471 kts 226°
2026-05-03 21:34 15.59006 -60.53012 25400 ft 467 kts 226°
2026-05-03 21:34 15.56714 -60.55373 24826 ft 463 kts 226°
2026-05-03 21:35 15.54439 -60.57716 24253 ft 459 kts 226°
2026-05-03 21:35 15.52186 -60.60035 23689 ft 456 kts 226°
2026-05-03 21:35 15.49939 -60.62347 23112 ft 452 kts 226°
2026-05-03 21:35 15.47740 -60.64610 22548 ft 448 kts 226°
2026-05-03 21:36 15.45522 -60.66891 21962 ft 444 kts 225°
2026-05-03 21:36 15.43345 -60.69130 21389 ft 441 kts 225°
2026-05-03 21:36 15.41195 -60.71340 20830 ft 437 kts 225°
2026-05-03 21:36 15.39046 -60.73547 20261 ft 434 kts 225°
2026-05-03 21:37 15.36901 -60.75751 19688 ft 430 kts 225°
2026-05-03 21:37 15.34796 -60.77913 19129 ft 427 kts 225°
2026-05-03 21:37 15.32682 -60.80083 18554 ft 425 kts 225°
2026-05-03 21:37 15.30607 -60.82213 17987 ft 422 kts 224°
2026-05-03 21:38 15.28520 -60.84354 17422 ft 419 kts 224°
2026-05-03 21:38 15.26466 -60.86461 16864 ft 417 kts 224°
2026-05-03 21:38 15.24394 -60.88586 16290 ft 415 kts 224°
2026-05-03 21:38 15.22362 -60.90669 15723 ft 413 kts 224°
2026-05-03 21:39 15.20333 -60.92748 15152 ft 411 kts 224°
2026-05-03 21:39 15.18287 -60.94844 14575 ft 409 kts 224°
2026-05-03 21:39 15.16266 -60.96914 14001 ft 407 kts 224°
2026-05-03 21:39 15.14269 -60.98959 13427 ft 405 kts 224°
2026-05-03 21:40 15.12274 -61.01001 12855 ft 403 kts 223°
2026-05-03 21:40 15.10277 -61.03045 12284 ft 401 kts 224°
2026-05-03 21:40 15.08300 -61.05067 11714 ft 399 kts 223°
2026-05-03 21:40 15.06337 -61.07075 11145 ft 397 kts 223°
2026-05-03 21:41 15.04379 -61.09076 10698 ft 391 kts 223°
2026-05-03 21:41 15.02467 -61.11033 10597 ft 376 kts 223°
2026-05-03 21:41 15.00645 -61.12895 10494 ft 361 kts 223°
2026-05-03 21:41 14.98889 -61.14690 10378 ft 349 kts 223°
2026-05-03 21:42 14.97205 -61.16409 10266 ft 337 kts 223°
2026-05-03 21:42 14.95554 -61.18095 10134 ft 326 kts 223°
2026-05-03 21:42 14.93962 -61.19721 9984 ft 317 kts 223°
2026-05-03 21:42 14.92404 -61.21309 9622 ft 316 kts 223°
2026-05-03 21:43 14.90855 -61.22891 9452 ft 308 kts 223°
2026-05-03 21:43 14.89319 -61.24457 8879 ft 310 kts 223°
2026-05-03 21:43 14.87804 -61.26002 8421 ft 305 kts 223°
2026-05-03 21:43 14.86294 -61.27542 8052 ft 300 kts 223°
2026-05-03 21:44 14.84695 -61.28870 7668 ft 292 kts 203°
2026-05-03 21:44 14.82805 -61.29400 7322 ft 279 kts 178°
2026-05-03 21:44 14.80886 -61.29184 6988 ft 274 kts 164°
2026-05-03 21:44 14.79038 -61.28681 6650 ft 273 kts 160°
2026-05-03 21:45 14.77225 -61.28091 6323 ft 272 kts 159°
2026-05-03 21:45 14.75437 -61.27479 5999 ft 271 kts 158°
2026-05-03 21:45 14.73646 -61.26857 5675 ft 270 kts 158°
2026-05-03 21:45 14.71848 -61.26234 5349 ft 270 kts 158°
2026-05-03 21:46 14.70074 -61.25618 5031 ft 269 kts 158°
2026-05-03 21:46 14.68307 -61.25006 4715 ft 269 kts 158°
2026-05-03 21:46 14.66537 -61.24392 4397 ft 268 kts 158°
2026-05-03 21:46 14.64743 -61.23770 4074 ft 268 kts 157°
2026-05-03 21:47 14.62993 -61.23164 3901 ft 261 kts 158°
2026-05-03 21:47 14.61315 -61.22584 3831 ft 250 kts 157°
2026-05-03 21:47 14.59695 -61.22024 3760 ft 239 kts 157°
2026-05-03 21:47 14.58140 -61.21477 3654 ft 228 kts 153°
2026-05-03 21:48 14.56939 -61.20567 3548 ft 207 kts 124°
2026-05-03 21:48 14.56218 -61.19340 3403 ft 197 kts 110°
2026-05-03 21:48 14.56029 -61.17981 3138 ft 191 kts 83°
2026-05-03 21:48 14.56262 -61.16631 2888 ft 189 kts 78°
2026-05-03 21:49 14.56511 -61.15319 2639 ft 184 kts 80°
2026-05-03 21:49 14.56731 -61.14055 2400 ft 176 kts 80°
2026-05-03 21:49 14.56932 -61.12879 2173 ft 160 kts 80°
2026-05-03 21:49 14.57122 -61.11783 1961 ft 149 kts 80°
2026-05-03 21:50 14.57245 -61.11071 1825 ft 142 kts 80°
2026-05-03 21:50 14.57338 -61.10539 1714 ft 138 kts 80°
2026-05-03 21:50 14.57513 -61.09565 1406 ft 138 kts 79°
2026-05-03 21:50 14.57690 -61.08601 1130 ft 131 kts 83°
2026-05-03 21:51 14.57796 -61.07655 1173 ft 138 kts 80°
2026-05-03 21:51 14.58030 -61.06678 1013 ft 139 kts 79°
2026-05-03 21:51 14.58174 -61.05703 828 ft 137 kts 82°
2026-05-03 21:51 14.58344 -61.04744 638 ft 136 kts 79°
2026-05-03 21:52 14.58522 -61.03769 448 ft 138 kts 81°
2026-05-03 21:52 14.58692 -61.02801 256 ft 137 kts 82°
2026-05-03 21:52 14.58849 -61.01827 64 ft 137 kts 81°
2026-05-03 21:52 14.59000 -61.00943 41 ft 107 kts 82°
2026-05-03 21:53 14.59097 -61.00367 36 ft 59 kts 81°
2026-05-03 21:53 14.59138 -61.00127 36 ft 20 kts 80°
2026-05-03 21:53 14.59159 -61.00038 36 ft 10 kts 57°
2026-05-03 21:53 14.59218 -61.00019 36 ft 8 kts 347°
2026-05-03 21:54 14.59271 -61.00031 37 ft 6 kts 348°
2026-05-03 21:54 14.59314 -61.00038 38 ft 6 kts 351°
2026-05-03 21:54 14.59363 -61.00053 38 ft 7 kts 337°
2026-05-03 21:54 14.59410 -61.00054 38 ft 6 kts 17°
2026-05-03 21:55 14.59443 -61.00041 38 ft 0 kts 21°
2026-05-03 21:55 14.59446 -61.00040 38 ft 0 kts 22°
2026-05-03 21:55 14.59448 -61.00039 38 ft 0 kts 22°
2026-05-03 21:55 14.59450 -61.00039 38 ft 0 kts 21°